Change the Weather History Date:

Saturday, September 28, 2013

  Actual Average Record
Temperature  
Mean Temperature 57 °F 58 °F  
Max Temperature 70 °F 71 °F 82 °F (1998)
Min Temperature 44 °F 45 °F 35 °F (2003)
Degree Days  
Heating Degree Days 8 8  
Month to date heating degree days 66 111  
Since 1 July heating degree days 80 127  
Cooling Degree Days 0 1  
Month to date cooling degree days 145 57  
Year to date cooling degree days 894 740  
Growing Degree Days 8 (Base 50)    
Moisture  
Dew Point 55 °F    
Average Humidity 77    
Maximum Humidity 93    
Minimum Humidity 60    
Precipitation  
Precipitation 0.19 in 0.06 in 0.34 in (2005)
Month to date precipitation 1.92 2.86  
Sea Level Pressure  
Sea Level Pressure 29.87 in    
Wind  
Wind Speed 10 mph (WSW)    
Max Wind Speed 25 mph    
Max Gust Speed 33 mph    
Visibility 8 miles    
Events Rain    
T = Trace of Precipitation, MM = Missing Value Source: NWS Daily Summary

Daily Weather History Graph

Daily Weather History Graph

Search for Another Location

Airport or City:

Trip Planner

Search our weather history database for the weather conditions in past years. The results will help you decide how hot, cold, wet, or windy it might be!

Date:

Astronomy

Sep. 28, 2013 Rise Set
Actual Time 7:08 AM CDT 7:00 PM CDT
Civil Twilight 6:40 AM CDT 7:28 PM CDT
Nautical Twilight 6:08 AM CDT 8:00 PM CDT
Astronomical Twilight 5:35 AM CDT 8:33 PM CDT
Moon 12:51 AM CDT (9/28) 3:24 PM CDT (9/28)
Length of Visible Light 12h 47m
Length of Day
11h 52m
Waning Crescent, 36% of the Moon is Illuminated
Sep 28
Waning Crescent
Oct 4
New
Oct 11
First Quarter
Oct 18
Full
Oct 26
Last Quarter

Hourly Weather History & Observations

Time (CDT) Temp. Dew Point Humidity Pressure Visibility Wind Dir Wind Speed Gust Speed Precip Events Conditions
12:53 AM 66.9 °F 59.0 °F 76% 29.83 in 10.0 mi SSE 10.4 mph - N/A   Clear
1:53 AM 66.0 °F 60.1 °F 81% 29.82 in 10.0 mi SSE 10.4 mph - N/A   Clear
2:53 AM 64.9 °F 60.1 °F 84% 29.80 in 10.0 mi SSE 9.2 mph - N/A   Clear
3:53 AM 64.9 °F 60.1 °F 84% 29.80 in 10.0 mi SSE 10.4 mph - N/A   Clear
4:53 AM 66.0 °F 61.0 °F 84% 29.78 in 10.0 mi SSE 12.7 mph - N/A   Clear
5:53 AM 66.9 °F 61.0 °F 81% 29.77 in 10.0 mi SSE 17.3 mph 24.2 mph N/A   Mostly Cloudy
6:53 AM 68.0 °F 61.0 °F 78% 29.76 in 10.0 mi SSE 15.0 mph 21.9 mph N/A   Overcast
7:53 AM 66.0 °F 62.1 °F 87% 29.78 in 5.0 mi South 12.7 mph - 0.06 in Rain Light Rain
8:53 AM 66.9 °F 63.0 °F 87% 29.77 in 7.0 mi SSE 11.5 mph 19.6 mph 0.02 in   Mostly Cloudy
9:53 AM 69.1 °F 64.0 °F 84% 29.77 in 9.0 mi South 18.4 mph 26.5 mph N/A   Mostly Cloudy
10:53 AM 68.0 °F 64.0 °F 87% 29.78 in 5.0 mi South 15.0 mph 21.9 mph 0.00 in Rain Light Rain
11:14 AM 68.0 °F 64.4 °F 88% 29.81 in 5.0 mi South 13.8 mph - 0.02 in Rain Light Rain
11:21 AM 68.0 °F 64.4 °F 88% 29.81 in 3.0 mi SSW 10.4 mph - 0.04 in Rain Rain
11:31 AM 60.8 °F 57.2 °F 88% 29.83 in 5.0 mi West 17.3 mph 33.4 mph 0.06 in Rain Light Rain
11:42 AM 57.2 °F 55.4 °F 94% 29.84 in 10.0 mi WNW 20.7 mph 25.3 mph 0.06 in Rain Light Rain
11:53 AM 57.0 °F 54.0 °F 89% 29.83 in 10.0 mi WNW 18.4 mph 29.9 mph 0.06 in   Overcast
12:13 PM 55.4 °F 53.6 °F 94% 29.87 in 10.0 mi WNW 15.0 mph 19.6 mph N/A   Overcast
12:50 PM 55.4 °F 53.6 °F 94% 29.89 in 3.0 mi WNW 12.7 mph 18.4 mph 0.03 in Rain Light Rain
12:53 PM 55.0 °F 53.1 °F 93% 29.88 in 3.0 mi WNW 13.8 mph 19.6 mph 0.03 in Rain Light Rain
1:02 PM 55.4 °F 53.6 °F 94% 29.90 in 4.0 mi WNW 11.5 mph 19.6 mph 0.00 in Rain Light Rain
1:24 PM 55.4 °F 53.6 °F 94% 29.90 in 8.0 mi WNW 11.5 mph - 0.01 in   Overcast
1:40 PM 55.4 °F 53.6 °F 94% 29.90 in 8.0 mi NW 8.1 mph - 0.02 in Rain Light Rain
1:53 PM 55.9 °F 54.0 °F 93% 29.89 in 10.0 mi WNW 8.1 mph - 0.02 in   Overcast
2:10 PM 57.2 °F 53.6 °F 88% 29.90 in 10.0 mi NW 10.4 mph - N/A   Overcast
2:19 PM 57.2 °F 53.6 °F 88% 29.90 in 10.0 mi WNW 11.5 mph - N/A   Overcast
2:26 PM 57.2 °F 53.6 °F 88% 29.91 in 10.0 mi WNW 10.4 mph - N/A   Overcast
2:53 PM 57.9 °F 54.0 °F 87% 29.90 in 10.0 mi WNW 9.2 mph 19.6 mph N/A   Mostly Cloudy
3:53 PM 60.1 °F 52.0 °F 75% 29.93 in 10.0 mi WNW 9.2 mph - N/A   Overcast
4:53 PM 61.0 °F 48.9 °F 64% 29.94 in 10.0 mi NW 12.7 mph - N/A   Overcast
5:53 PM 62.1 °F 48.0 °F 60% 29.95 in 10.0 mi WNW 10.4 mph - N/A   Clear
6:53 PM 57.9 °F 48.0 °F 70% 29.96 in 10.0 mi Calm Calm - N/A   Clear
7:53 PM 52.0 °F 48.0 °F 86% 29.98 in 10.0 mi WSW 5.8 mph - N/A   Clear
8:53 PM 50.0 °F 46.0 °F 86% 30.01 in 10.0 mi West 5.8 mph - N/A   Clear
9:53 PM 48.0 °F 45.0 °F 89% 30.02 in 10.0 mi WSW 5.8 mph - N/A   Clear
10:53 PM 48.9 °F 45.0 °F 86% 30.03 in 10.0 mi West 8.1 mph - N/A   Clear
11:53 PM 46.9 °F 44.1 °F 90% 30.04 in 10.0 mi West 5.8 mph - N/A   Clear